Location: Peebles
(55.6412°N, 3.1714°W)
Time: 17:32:59
(UTC+01:00)

USA 238 DEB - Pass Details

Date: 28 January 2022
Orbit: 969 x 1243 km, 63.4° (Epoch: 04 May)

Event Time Altitude Azimuth Distance (km) Brightness Sun altitude
Rises 21:30:24 0° 303° (WNW) 3,867 7.5 -40.0°
Reaches altitude 10° 21:33:01 10° 306° (NW) 2,948 6.7 -40.3°
Enters shadow 21:37:15 39° 320° (NW) 1,619 4.8 -40.8°
